Weather History for Marion Regional, IL

Change the Weather History Date:

Sunday, November 17, 2013

  Actual Average Record
Temperature  
Mean Temperature 66 °F -  
Max Temperature 75 °F 53 °F 77 °F (2001)
Min Temperature 55 °F 33 °F 15 °F (1989)
Cooling Degree Days 1    
Growing Degree Days 16 (Base 50)    
Moisture  
Dew Point 50 °F    
Average Humidity 66    
Maximum Humidity 100    
Minimum Humidity 19    
Precipitation  
Precipitation 1.14 in - - ()
Sea Level Pressure  
Sea Level Pressure 29.75 in    
Wind  
Wind Speed 13 mph (SW)    
Max Wind Speed 23 mph    
Max Gust Speed 38 mph    
Visibility 11 miles    
Events Rain , Thunderstorm    
Averages and records for this station are not official NWS values.
T = Trace of Precipitation, MM = Missing Value Source: NWS Daily Summary

Daily Weather History Graph

Daily Weather History Graph

Search for Another Location

Airport:

Trip Planner

Search our weather history database for the weather conditions in past years. The results will help you decide how hot, cold, wet, or windy it might be!

Date:

Astronomy

Nov. 17, 2013 Rise Set
Actual Time 6:38 AM CST 4:43 PM CST
Civil Twilight 6:10 AM CST 5:11 PM CST
Nautical Twilight 5:38 AM CST 5:43 PM CST
Astronomical Twilight 5:07 AM CST 6:14 PM CST
Moon 5:00 PM CST (11/17) 6:32 AM CST (11/17)
Length of Visible Light 11h 00m
Length of Day
10h 04m
Full, 100% of the Moon is Illuminated
Nov 17
Full
Nov 25
Last Quarter
Dec 2
New
Dec 9
First Quarter
Dec 17
Full

Hourly Weather History & Observations

Time (CST) Temp. Dew Point Humidity Pressure Visibility Wind Dir Wind Speed Gust Speed Precip Events Conditions
12:15 AM 66.2 °F 62.6 °F 88% 29.74 in 10.0 mi SSW 13.8 mph 17.3 mph 0.01 in Rain Light Rain
12:35 AM 66.2 °F 62.6 °F 88% 29.73 in 4.0 mi WSW 10.4 mph 24.2 mph 0.09 in Rain , Thunderstorm Heavy Thunderstorms and Rain
12:55 AM 66.2 °F 62.6 °F 88% 29.74 in 2.5 mi SW 11.5 mph 20.7 mph 0.48 in Rain Heavy Rain
1:15 AM 66.2 °F 62.6 °F 88% 29.71 in 5.0 mi SSW 11.5 mph 24.2 mph 0.06 in Rain , Thunderstorm Rain
1:35 AM 66.2 °F 62.6 °F 88% 29.72 in 5.0 mi SSW 10.4 mph - 0.13 in Rain , Thunderstorm Rain
1:55 AM 66.2 °F 64.4 °F 94% 29.72 in 10.0 mi SSW 15.0 mph 35.7 mph 0.16 in Rain Light Rain
2:15 AM 66.2 °F 64.4 °F 94% 29.73 in 10.0 mi SSW 18.4 mph 23.0 mph 0.01 in Rain Rain
2:35 AM 66.2 °F 62.6 °F 88% 29.73 in 3.0 mi SSW 23.0 mph 28.8 mph 0.17 in Rain , Thunderstorm Heavy Thunderstorms and Rain
2:55 AM 64.4 °F 62.6 °F 94% 29.71 in 5.0 mi SSW 13.8 mph 18.4 mph 0.25 in Rain , Thunderstorm Thunderstorms and Rain
3:15 AM 64.4 °F 64.4 °F 100% 29.72 in 3.0 mi South 16.1 mph 21.9 mph 0.15 in Rain Heavy Rain
3:35 AM 64.4 °F 64.4 °F 100% 29.72 in 10.0 mi South 12.7 mph 21.9 mph 0.25 in Rain Light Rain
3:55 AM 66.2 °F 62.6 °F 88% 29.71 in 10.0 mi South 12.7 mph - 0.25 in   Overcast
4:15 AM 66.2 °F 62.6 °F 88% 29.70 in 10.0 mi South 13.8 mph 20.7 mph N/A   Drizzle
4:35 AM 66.2 °F 62.6 °F 88% 29.69 in 10.0 mi South 17.3 mph 20.7 mph N/A   Overcast
4:55 AM 66.2 °F 62.6 °F 88% 29.69 in 10.0 mi South 13.8 mph 18.4 mph N/A   Overcast
5:15 AM 66.2 °F 62.6 °F 88% 29.69 in 10.0 mi South 16.1 mph - N/A   Overcast
5:35 AM 64.4 °F 62.6 °F 94% 29.68 in 10.0 mi South 12.7 mph - N/A   Mostly Cloudy
5:55 AM 66.2 °F 62.6 °F 88% 29.68 in 10.0 mi South 21.9 mph 27.6 mph N/A   Overcast
6:15 AM 66.2 °F 62.6 °F 88% 29.68 in 10.0 mi South 19.6 mph 24.2 mph N/A   Overcast
6:35 AM 66.2 °F 62.6 °F 88% 29.68 in 10.0 mi South 18.4 mph 29.9 mph N/A   Overcast
6:55 AM 66.2 °F 62.6 °F 88% 29.68 in 20.0 mi SSW 19.6 mph 31.1 mph N/A   Overcast
7:55 AM 68.0 °F 64.4 °F 88% 29.67 in 20.0 mi SSW 13.8 mph 19.6 mph N/A   Overcast
8:55 AM 68.0 °F 64.4 °F 88% 29.66 in 20.0 mi SSW 18.4 mph 27.6 mph N/A   Overcast
9:55 AM 68.0 °F 64.4 °F 88% 29.65 in 7.0 mi South 18.4 mph 27.6 mph N/A Rain Rain
10:55 AM 68.0 °F 66.2 °F 94% 29.61 in 15.0 mi South 17.3 mph 28.8 mph N/A Rain Light Rain
11:55 AM 71.6 °F 66.2 °F 83% 29.56 in 20.0 mi SSW 23.0 mph - N/A   Overcast
12:54 PM 71.6 °F 66.2 °F 83% 29.53 in 15.0 mi SSW 20.7 mph 38.0 mph N/A Rain Light Rain
1:04 PM 71.6 °F 66.2 °F 83% 29.53 in 1.0 mi SW 9.2 mph 23.0 mph N/A Rain Rain
1:15 PM 68.0 °F 66.2 °F 94% 29.95 in 12.0 mi West 13.8 mph - N/A Rain Light Rain
1:53 PM 71.6 °F 66.2 °F 83% 29.54 in 20.0 mi SW 17.3 mph 23.0 mph N/A   Scattered Clouds
2:53 PM 75.2 °F 66.2 °F 73% 29.58 in 20.0 mi WSW 16.1 mph - N/A   Scattered Clouds
3:54 PM 75.2 °F 37.4 °F 25% 29.65 in 20.0 mi West 16.1 mph - N/A   Partly Cloudy
4:55 PM 71.6 °F 26.6 °F 19% 29.71 in 20.0 mi WNW 15.0 mph - N/A   Partly Cloudy
5:53 PM 68.0 °F 28.4 °F 23% 29.76 in 20.0 mi WNW 11.5 mph - N/A   Clear
7:15 PM 66.2 °F 26.6 °F 23% 29.79 in 10.0 mi West 5.8 mph - N/A   Clear
7:35 PM 66.2 °F 28.4 °F 24% 29.80 in 10.0 mi West 5.8 mph - N/A   Clear
7:55 PM 62.6 °F 30.2 °F 30% 29.81 in 10.0 mi WSW 4.6 mph - N/A   Clear
8:15 PM 64.4 °F 28.4 °F 26% 29.83 in 10.0 mi West 10.4 mph 17.3 mph N/A   Clear
8:35 PM 64.4 °F 28.4 °F 26% 29.85 in 10.0 mi West 8.1 mph - N/A   Clear
8:55 PM 64.4 °F 24.8 °F 22% 29.87 in 10.0 mi WNW 5.8 mph - N/A   Clear
9:15 PM 62.6 °F 24.8 °F 24% 29.89 in 10.0 mi West 5.8 mph - N/A   Clear
9:35 PM 60.8 °F 23.0 °F 23% 29.89 in 10.0 mi NW 4.6 mph - N/A   Clear
9:55 PM 59.0 °F 24.8 °F 27% 29.91 in 10.0 mi West 3.5 mph - N/A   Clear
10:15 PM 59.0 °F 24.8 °F 27% 29.92 in 10.0 mi WNW 3.5 mph - N/A   Clear
10:35 PM 57.2 °F 26.6 °F 31% 29.92 in 10.0 mi NW 3.5 mph - N/A   Clear
10:55 PM 57.2 °F 26.6 °F 31% 29.93 in 10.0 mi NW 6.9 mph - N/A   Clear
11:15 PM 57.2 °F 26.6 °F 31% 29.94 in 10.0 mi NW 5.8 mph - N/A   Clear
11:35 PM 57.2 °F 28.4 °F 33% 29.95 in 10.0 mi NW 4.6 mph - N/A   Clear
11:55 PM 55.4 °F 30.2 °F 38% 29.96 in 10.0 mi NNW 3.5 mph - N/A   Clear